Weather in Wuwei

China     37°55′36″N   102°38′17″E
temp.,
°C
wind,
m/s
gust,
m/s
humid.,
%
clouds,
%
prec.,
mm/h
press.,
hPa
HPBL,
m
18 may, tue
tue1823:00+16se333337 0.0 101034
02:00+14s2238100 0.0 101028
05:00+13wnw223587 0.0 101013
08:00+16s2229100 0.0 1010109
11:00+21n9821100 0.0 10091600
14:00+20nw121029100 0.0 10092112
17:00+16wnw10941100 0.1 10111774
20:00+11w81173100 1.0 1016789
19 may, wed
wed1923:00+12s3562100 1.2 1014186
02:00+12sw2260100 1.2 101334
05:00+12ssw225595 0.0 101215
08:00+15wsw363955 0.0 1012230
11:00+21nw79236 0.0 10102877
14:00+23nw8917100 0.0 10073813
17:00+23wnw581699 0.0 10053747
20:00+19ssw572517 0.0 1006124
20 may, thu
thu2023:00+15sw453027 0.0 100874
02:00+14sw22290 0.0 100714
05:00+13sw12300 0.0 100611
08:00+16sw01250 0.0 100791
11:00+23ese23151 0.0 10041697
14:00+25ese2411100 0.0 10013772
17:00+26ne3411100 0.0 9993600
20:00+22se3315100 0.0 100030
21 may, fri
fri2123:00+19sse331697 0.0 100138
02:00+17sse222420 0.0 99923
05:00+15wnw2225100 0.0 99914
08:00+19wnw2425100 0.0 1000130
11:00+25nnw5516100 0.0 999913
14:00+28n7612100 0.0 9972688
17:00+25nnw121115100 0.0 10001622
20:00+21nnw8122092 0.0 1003669
22 may, sat
sat2223:00+18nnw61024100 0.0 1008688
02:00+15nw3428100 0.0 100974
05:00+14wnw2231100 0.0 100914
08:00+16n4424100 0.0 1010482
11:00+18n5317100 0.0 10111514
14:00+21nne3316100 0.0 10072124
17:00+21nnw7416100 0.0 10072795
20:00+12nw9115399 0.1 1015708